Cloud_Cover
28 23 10 14 100 90 100 97 98 94 56 25 93 97 97 85 73 67 75 54 28 8 14 4 3 7 1 0 0 0 0 0 0 0 0 12 10 94 92 5 5 7 83
4 0 2 0 0 14 12 24 73 91 90 96 100 100 100 94 99 62 72 84 52 98 83 57 41 29 16 6 0 0 0 0 0 0 0 0 50 90 94 100 85 5 48
2 0 0 0 0 0 0 0 0 0 0 0 2 0 37 34 45 38 57 65 82 77 94 89 94 99 74 31 11 3 0 0 0 0 0 0 3 80 100 49 93 100 86
0 0 0 0 0 0 0 0 0 0 0 0 0 0 0 0 0 0 0 0 7 77 87 93 97 100 86 83 96 59 25 3 2 0 0 3 3 0 63 100 100 95 100
0 0 0 32 0 0 0 0 0 0 0 0 0 0 0 0 0 0 0 0 0 0 0 6 3 35 68 61 81 85 98 84 60 1 10 30 13 10 0 89 100 100 100
0 0 11 2 0 0 0 0 0 0 0 0 0 0 0 0 0 0 0 0 0 0 0 0 0 0 0 0 4 53 46 100 64 92 98 100 35 8 5 0 88 100 100
0 0 0 0 0 0 0 0 0 0 0 0 0 0 0 0 0 0 0 0 0 0 0 0 0 0 0 0 0 0 0 1 16 60 61 86 100 54 2 0 0 22 100
0 0 0 0 0 0 0 0 0 0 0 0 0 0 0 0 0 0 0 0 0 0 0 0 0 0 0 0 0 0 0 2 0 0 8 71 60 84 16 4 0 0 19
0 0 0 0 0 0 0 0 0 0 0 0 0 0 0 0 0 0 0 0 0 0 0 0 0 0 0 0 0 0 0 0 0 0 7 51 22 66 60 38 0 0 3
0 0 0 0 0 0 0 0 0 0 0 0 0 0 0 0 0 4 5 5 0 0 4 5 0 0 0 0 2 5 0 0 0 0 0 0 64 93 70 100 100 97 58
0 0 0 0 0 0 0 0 0 0 0 0 0 0 3 5 5 5 5 5 5 5 5 5 5 5 5 4 5 5 4 1 0 0 0 0 0 64 100 100 100 100 100
0 0 0 0 0 0 0 0 0 0 3 5 5 5 5 5 5 22 24 7 5 5 5 5 5 5 71 41 13 5 5 5 1 2 1 0 0 0 1 98 100 76 84
0 0 0 3 5 5 5 5 5 5 5 5 5 5 5 5 5 5 7 19 45 85 92 98 98 96 99 57 61 23 83 88 35 5 5 5 0 0 0 0 57 100 67
1 5 5 5 5 5 5 5 6 41 5 5 5 19 5 6 30 94 100 100 100 89 81 97 100 100 100 100 99 100 100 100 96 91 64 7 5 5 5 5 0 56 100
5 5 5 5 5 5 50 61 54 10 5 8 53 84 39 62 95 90 87 70 92 86 69 51 29 22 76 26 8 5 9 12 54 84 75 98 5 4 3 2 0 0 65
5 5 5 5 12 6 9 5 30 5 21 58 73 88 100 100 99 82 36 30 26 7 6 11 7 5 6 6 9 5 6 32 36 3 6 5 5 0 0 0 0 0 0
5 5 37 5 5 5 5 5 9 77 54 66 56 100 78 30 23 60 32 6 5 4 5 5 4 0 0 0 0 1 3 0 0 0 0 0 0 0 0 0 0 0 0
5 38 39 5 5 18 22 53 89 47 44 42 65 10 5 5 5 5 5 5 5 2 1 0 0 0 0 0 0 0 0 0 0 0 0 0 0 0 0 0 0 0 0
5 5 23 15 11 78 78 100 86 84 88 23 5 5 5 5 5 39 5 5 1 1 0 0 0 0 0 0 0 0 0 0 0 0 0 0 0 0 7 45 5 8 0
43 97 84 100 98 100 100 100 84 82 60 5 5 5 23 5 41 38 5 5 5 5 5 3 0 0 0 0 1 0 0 0 0 0 0 3 5 40 92 100 100 97 77
82 95 37 100 100 100 100 100 100 79 11 6 6 10 33 5 6 5 5 36 45 25 5 2 0 4 5 5 5 3 0 0 0 0 5 37 48 100 100 100 74 72 72
78 84 100 100 100 100 100 100 92 32 26 5 35 5 6 54 8 16 82 93 30 20 5 0 5 5 5 5 18 47 1 0 34 58 1 2 82 95 95 100 100 100 81
77 100 100 100 100 100 100 100 50 82 65 64 10 11 5 7 24 85 100 69 6 5 4 5 5 5 5 5 67 93 68 5 13 34 63 1 19 9 63 86 87 100 97
74 100 83 100 100 100 100 63 66 29 52 97 11 7 7 41 78 100 95 19 6 5 0 2 1 5 5 5 59 95 100 97 100 80 100 22 5 53 24 100 5 100 98
94 100 99 100 69 41 90 52 46 73 81 58 26 6 52 81 100 100 99 98 24 0 1 4 5 5 5 34 98 100 100 100 100 100 100 100 28 14 7 5 80 100 100
44 14 50 6 22 14 6 5 46 33 6 42 15 5 91 100 88 100 100 99 8 5 5 5 5 5 16 80 94 100 100 100 100 100 100 95 95 27 48 43 81 100 100